iso_date,epoch_date,Year,Hour,Min,DOY,POS_DOY,Lat,Lon,BP,Ts,Ta,has_bp,has_ts,has_ta,BuoyID,Buoy_Type,Buoy_Owner,Logistics,Hemisphere
2014-03-03T01:00:28Z,1393808429,2014,1,0,62.042,62.042,62.46695,-114.41603,1003.05,-999.00,-999.0,yes,no,no,169312003533423,WB,BAS,APL_Sachs_Harbor,North
2014-03-03T01:59:31Z,1393811971,2014,2,0,62.083,62.083,62.46698,-114.416,1003.05,-999.00,-999.0,yes,no,no,169312003533423,WB,BAS,APL_Sachs_Harbor,North
2014-03-03T03:00:00Z,1393815600,2014,3,0,62.125,62.125,62.46685,-114.41622,999.18,-999.00,-999.0,yes,no,no,169312003533423,WB,BAS,APL_Sachs_Harbor,North
2014-03-03T04:00:28Z,1393819229,2014,4,0,62.167,62.167,62.46692,-114.41612,996.65,-999.00,-999.0,yes,no,no,169312003533423,WB,BAS,APL_Sachs_Harbor,North
2014-03-03T04:59:31Z,1393822771,2014,5,0,62.208,62.208,62.46697,-114.41603,997.98,-999.00,-999.0,yes,no,no,169312003533423,WB,BAS,APL_Sachs_Harbor,North
2014-03-03T06:00:00Z,1393826400,2014,6,0,62.25,62.25,62.46697,-114.416,991.58,-999.00,-999.0,yes,no,no,169312003533423,WB,BAS,APL_Sachs_Harbor,North
2014-03-03T07:00:28Z,1393830029,2014,7,0,62.292,62.292,62.46697,-114.4161,991.58,-999.00,-999.0,yes,no,no,169312003533423,WB,BAS,APL_Sachs_Harbor,North
2014-03-03T07:59:31Z,1393833571,2014,8,0,62.333,62.333,62.46697,-114.41607,991.58,-999.00,-999.0,yes,no,no,169312003533423,WB,BAS,APL_Sachs_Harbor,North
2014-03-03T09:00:00Z,1393837200,2014,9,0,62.375,62.375,62.46697,-114.41613,992.91,-999.00,-999.0,yes,no,no,169312003533423,WB,BAS,APL_Sachs_Harbor,North
2014-03-03T10:00:28Z,1393840829,2014,10,0,62.417,62.417,62.46693,-114.41602,991.58,-999.00,-999.0,yes,no,no,169312003533423,WB,BAS,APL_Sachs_Harbor,North
2014-03-03T10:59:31Z,1393844371,2014,11,0,62.458,62.458,62.46695,-114.41598,990.25,-999.00,-999.0,yes,no,no,169312003533423,WB,BAS,APL_Sachs_Harbor,North
2014-03-03T12:00:00Z,1393848000,2014,12,0,62.5,62.5,62.46703,-114.41605,990.25,-999.00,-999.0,yes,no,no,169312003533423,WB,BAS,APL_Sachs_Harbor,North
2014-03-03T13:00:28Z,1393851629,2014,13,0,62.542,62.542,62.46698,-114.41603,989.05,-999.00,-999.0,yes,no,no,169312003533423,WB,BAS,APL_Sachs_Harbor,North
2014-03-03T13:59:31Z,1393855171,2014,14,0,62.583,62.583,62.46697,-114.41602,989.05,-999.00,-999.0,yes,no,no,169312003533423,WB,BAS,APL_Sachs_Harbor,North
2014-03-03T15:00:00Z,1393858800,2014,15,0,62.625,62.625,62.46698,-114.416,990.25,-999.00,-999.0,yes,no,no,169312003533423,WB,BAS,APL_Sachs_Harbor,North
2014-03-03T16:00:28Z,1393862429,2014,16,0,62.667,62.667,62.46693,-114.41603,989.05,-999.00,-999.0,yes,no,no,169312003533423,WB,BAS,APL_Sachs_Harbor,North
2014-03-20T01:00:28Z,1395277229,2014,1,0,79.042,79.042,75.38382,-137.09795,1027.32,-999.00,-999.0,yes,no,no,169312003533423,WB,BAS,APL_Sachs_Harbor,North
2014-03-20T01:59:31Z,1395280771,2014,2,0,79.083,79.083,75.38387,-137.0951,1029.86,-999.00,-999.0,yes,no,no,169312003533423,WB,BAS,APL_Sachs_Harbor,North
2014-03-20T03:00:00Z,1395284400,2014,3,0,79.125,79.125,75.38383,-137.09422,1027.31,-999.00,-999.0,yes,no,no,169312003533423,WB,BAS,APL_Sachs_Harbor,North
2014-03-20T04:00:28Z,1395288029,2014,4,0,79.167,79.167,75.3838,-137.0894,1028.51,-999.00,-999.0,yes,no,no,169312003533423,WB,BAS,APL_Sachs_Harbor,North
2014-03-20T04:59:31Z,1395291571,2014,5,0,79.208,79.208,75.3838,-137.0894,1027.31,-999.00,-999.0,yes,no,no,169312003533423,WB,BAS,APL_Sachs_Harbor,North
2014-03-20T06:00:00Z,1395295200,2014,6,0,79.25,79.25,75.3838,-137.0894,1025.98,-999.00,-999.0,yes,no,no,169312003533423,WB,BAS,APL_Sachs_Harbor,North
2014-03-20T07:00:28Z,1395298829,2014,7,0,79.292,79.292,75.3838,-137.0894,1027.31,-999.00,-999.0,yes,no,no,169312003533423,WB,BAS,APL_Sachs_Harbor,North
2014-03-20T07:59:31Z,1395302371,2014,8,0,79.333,79.333,75.3838,-137.0894,1025.98,-999.00,-999.0,yes,no,no,169312003533423,WB,BAS,APL_Sachs_Harbor,North
2014-03-20T09:00:00Z,1395306000,2014,9,0,79.375,79.375,75.3838,-137.0894,1025.98,-999.00,-999.0,yes,no,no,169312003533423,WB,BAS,APL_Sachs_Harbor,North
2014-03-20T10:00:28Z,1395309629,2014,10,0,79.417,79.417,75.38488,-137.0521,1027.31,-999.00,-999.0,yes,no,no,169312003533423,WB,BAS,APL_Sachs_Harbor,North
2014-03-20T10:59:31Z,1395313171,2014,11,0,79.458,79.458,75.38492,-137.04018,1022.25,-999.00,-999.0,yes,no,no,169312003533423,WB,BAS,APL_Sachs_Harbor,North
2014-03-20T12:00:00Z,1395316800,2014,12,0,79.5,79.5,75.38495,-137.02447,1028.51,-999.00,-999.0,yes,no,no,169312003533423,WB,BAS,APL_Sachs_Harbor,North
2014-03-20T13:00:28Z,1395320429,2014,13,0,79.542,79.542,75.38515,-137.01212,1024.78,-999.00,-999.0,yes,no,no,169312003533423,WB,BAS,APL_Sachs_Harbor,North
2014-03-20T13:59:31Z,1395323971,2014,14,0,79.583,79.583,75.38555,-136.99905,1024.78,-999.00,-999.0,yes,no,no,169312003533423,WB,BAS,APL_Sachs_Harbor,North
2014-03-20T15:00:00Z,1395327600,2014,15,0,79.625,79.625,75.38647,-136.98593,1024.78,-999.00,-999.0,yes,no,no,169312003533423,WB,BAS,APL_Sachs_Harbor,North
2014-03-20T16:00:28Z,1395331229,2014,16,0,79.667,79.667,75.38767,-136.97042,1023.45,-999.00,-999.0,yes,no,no,169312003533423,WB,BAS,APL_Sachs_Harbor,North
2014-03-20T16:59:31Z,1395334771,2014,17,0,79.708,79.708,75.38952,-136.95257,1023.45,-999.00,-999.0,yes,no,no,169312003533423,WB,BAS,APL_Sachs_Harbor,North
2014-03-20T18:00:00Z,1395338400,2014,18,0,79.75,79.75,75.3913,-136.93328,1018.38,-999.00,-999.0,yes,no,no,169312003533423,WB,BAS,APL_Sachs_Harbor,North
2014-03-20T19:00:28Z,1395342029,2014,19,0,79.792,79.792,75.39297,-136.90947,1020.91,-999.00,-999.0,yes,no,no,169312003533423,WB,BAS,APL_Sachs_Harbor,North
2014-03-20T19:59:31Z,1395345571,2014,20,0,79.833,79.833,75.39438,-136.88593,1020.91,-999.00,-999.0,yes,no,no,169312003533423,WB,BAS,APL_Sachs_Harbor,North
2014-03-20T21:00:00Z,1395349200,2014,21,0,79.875,79.875,75.395,-136.85852,1019.58,-999.00,-999.0,yes,no,no,169312003533423,WB,BAS,APL_Sachs_Harbor,North
2014-03-20T22:00:28Z,1395352829,2014,22,0,79.917,79.917,75.39502,-136.83352,1020.92,-999.00,-999.0,yes,no,no,169312003533423,WB,BAS,APL_Sachs_Harbor,North
2014-03-20T22:59:31Z,1395356371,2014,23,0,79.958,79.958,75.39403,-136.80732,1020.91,-999.00,-999.0,yes,no,no,169312003533423,WB,BAS,APL_Sachs_Harbor,North
2014-03-21T00:00:00Z,1395360000,2014,0,0,80.0,80.0,75.39248,-136.78343,1019.58,-999.00,-999.0,yes,no,no,169312003533423,WB,BAS,APL_Sachs_Harbor,North
2014-03-21T01:00:28Z,1395363629,2014,1,0,80.042,80.042,75.39037,-136.76395,1020.92,-999.00,-999.0,yes,no,no,169312003533423,WB,BAS,APL_Sachs_Harbor,North
2014-03-21T01:59:31Z,1395367171,2014,2,0,80.083,80.083,75.38798,-136.74773,1020.92,-999.00,-999.0,yes,no,no,169312003533423,WB,BAS,APL_Sachs_Harbor,North
2014-03-21T03:00:00Z,1395370800,2014,3,0,80.125,80.125,75.38658,-136.73877,1020.91,-999.00,-999.0,yes,no,no,169312003533423,WB,BAS,APL_Sachs_Harbor,North
2014-03-21T04:00:28Z,1395374429,2014,4,0,80.167,80.167,75.38408,-136.72905,1022.25,-999.00,-999.0,yes,no,no,169312003533423,WB,BAS,APL_Sachs_Harbor,North
2014-03-21T04:59:31Z,1395377971,2014,5,0,80.208,80.208,75.38263,-136.72353,1020.91,-999.00,-999.0,yes,no,no,169312003533423,WB,BAS,APL_Sachs_Harbor,North
2014-03-21T06:00:00Z,1395381600,2014,6,0,80.25,80.25,75.3811,-136.71408,1020.91,-999.00,-999.0,yes,no,no,169312003533423,WB,BAS,APL_Sachs_Harbor,North
2014-03-21T07:00:28Z,1395385229,2014,7,0,80.292,80.292,75.37998,-136.70578,1020.91,-999.00,-999.0,yes,no,no,169312003533423,WB,BAS,APL_Sachs_Harbor,North
2014-03-21T07:59:31Z,1395388771,2014,8,0,80.333,80.333,75.37937,-136.6975,1019.58,-999.00,-999.0,yes,no,no,169312003533423,WB,BAS,APL_Sachs_Harbor,North
2014-03-21T09:00:00Z,1395392400,2014,9,0,80.375,80.375,75.37868,-136.68385,1011.98,-999.00,-999.0,yes,no,no,169312003533423,WB,BAS,APL_Sachs_Harbor,North
2014-03-21T10:00:28Z,1395396029,2014,10,0,80.417,80.417,75.3785,-136.66857,1018.38,-999.00,-999.0,yes,no,no,169312003533423,WB,BAS,APL_Sachs_Harbor,North
2014-03-21T10:59:31Z,1395399571,2014,11,0,80.458,80.458,75.37838,-136.65163,1019.58,-999.00,-999.0,yes,no,no,169312003533423,WB,BAS,APL_Sachs_Harbor,North
2014-03-21T12:00:00Z,1395403200,2014,12,0,80.5,80.5,75.3786,-136.63402,1017.05,-999.00,-999.0,yes,no,no,169312003533423,WB,BAS,APL_Sachs_Harbor,North
2014-03-21T13:00:28Z,1395406829,2014,13,0,80.542,80.542,75.37852,-136.61853,1017.05,-999.00,-999.0,yes,no,no,169312003533423,WB,BAS,APL_Sachs_Harbor,North
2014-03-21T13:59:31Z,1395410371,2014,14,0,80.583,80.583,75.37838,-136.60298,1014.51,-999.00,-999.0,yes,no,no,169312003533423,WB,BAS,APL_Sachs_Harbor,North
2014-03-21T15:00:00Z,1395414000,2014,15,0,80.625,80.625,75.37933,-136.58535,1015.85,-999.00,-999.0,yes,no,no,169312003533423,WB,BAS,APL_Sachs_Harbor,North
2014-03-21T16:00:28Z,1395417629,2014,16,0,80.667,80.667,75.37982,-136.5698,1010.65,-999.00,-999.0,yes,no,no,169312003533423,WB,BAS,APL_Sachs_Harbor,North
2014-03-21T16:59:31Z,1395421171,2014,17,0,80.708,80.708,75.38152,-136.54787,1010.65,-999.00,-999.0,yes,no,no,169312003533423,WB,BAS,APL_Sachs_Harbor,North
2014-03-21T18:00:00Z,1395424800,2014,18,0,80.75,80.75,75.38268,-136.52828,1010.65,-999.00,-999.0,yes,no,no,169312003533423,WB,BAS,APL_Sachs_Harbor,North
2014-03-21T19:00:28Z,1395428429,2014,19,0,80.792,80.792,75.38212,-136.5036,1008.11,-999.00,-999.0,yes,no,no,169312003533423,WB,BAS,APL_Sachs_Harbor,North
2014-03-21T19:59:31Z,1395431971,2014,20,0,80.833,80.833,75.38108,-136.48375,1009.45,-999.00,-999.0,yes,no,no,169312003533423,WB,BAS,APL_Sachs_Harbor,North
2014-03-21T21:00:00Z,1395435600,2014,21,0,80.875,80.875,75.37857,-136.45867,1010.66,-999.00,-999.0,yes,no,no,169312003533423,WB,BAS,APL_Sachs_Harbor,North
2014-03-21T22:00:28Z,1395439229,2014,22,0,80.917,80.917,75.3746,-136.44168,1011.99,-999.00,-999.0,yes,no,no,169312003533423,WB,BAS,APL_Sachs_Harbor,North
2014-03-21T22:59:31Z,1395442771,2014,23,0,80.958,80.958,75.36978,-136.42812,1011.99,-999.00,-999.0,yes,no,no,169312003533423,WB,BAS,APL_Sachs_Harbor,North
2014-03-22T00:00:00Z,1395446400,2014,0,0,81.0,81.0,75.36297,-136.41668,1015.85,-999.00,-999.0,yes,no,no,169312003533423,WB,BAS,APL_Sachs_Harbor,North
2014-03-22T01:00:28Z,1395450029,2014,1,0,81.042,81.042,75.35573,-136.41417,1015.85,-999.00,-999.0,yes,no,no,169312003533423,WB,BAS,APL_Sachs_Harbor,North
2014-03-22T01:59:31Z,1395453571,2014,2,0,81.083,81.083,75.34935,-136.42065,1015.85,-999.00,-999.0,yes,no,no,169312003533423,WB,BAS,APL_Sachs_Harbor,North
2014-03-22T03:00:00Z,1395457200,2014,3,0,81.125,81.125,75.34348,-136.43125,1017.05,-999.00,-999.0,yes,no,no,169312003533423,WB,BAS,APL_Sachs_Harbor,North
2014-03-22T04:59:31Z,1395464371,2014,5,0,81.208,81.208,75.3351,-136.4552,1019.58,-999.00,-999.0,yes,no,no,169312003533423,WB,BAS,APL_Sachs_Harbor,North
2014-03-22T06:00:00Z,1395468000,2014,6,0,81.25,81.25,75.33152,-136.46598,1015.85,-999.00,-999.0,yes,no,no,169312003533423,WB,BAS,APL_Sachs_Harbor,North
2014-03-22T07:00:28Z,1395471629,2014,7,0,81.292,81.292,75.33003,-136.4703,1018.38,-999.00,-999.0,yes,no,no,169312003533423,WB,BAS,APL_Sachs_Harbor,North
2014-03-22T07:59:31Z,1395475171,2014,8,0,81.333,81.333,75.32763,-136.47487,1018.38,-999.00,-999.0,yes,no,no,169312003533423,WB,BAS,APL_Sachs_Harbor,North
2014-03-22T09:00:00Z,1395478800,2014,9,0,81.375,81.375,75.32507,-136.47522,1020.91,-999.00,-999.0,yes,no,no,169312003533423,WB,BAS,APL_Sachs_Harbor,North
2014-03-22T10:00:28Z,1395482429,2014,10,0,81.417,81.417,75.32237,-136.47315,1010.65,-999.00,-999.0,yes,no,no,169312003533423,WB,BAS,APL_Sachs_Harbor,North
2014-03-22T10:59:31Z,1395485971,2014,11,0,81.458,81.458,75.31947,-136.47175,1020.91,-999.00,-999.0,yes,no,no,169312003533423,WB,BAS,APL_Sachs_Harbor,North
2014-03-22T12:00:00Z,1395489600,2014,12,0,81.5,81.5,75.31562,-136.4703,1020.91,-999.00,-999.0,yes,no,no,169312003533423,WB,BAS,APL_Sachs_Harbor,North
2014-03-22T13:00:28Z,1395493229,2014,13,0,81.542,81.542,75.31242,-136.4697,1022.25,-999.00,-999.0,yes,no,no,169312003533423,WB,BAS,APL_Sachs_Harbor,North
2014-03-22T13:59:31Z,1395496771,2014,14,0,81.583,81.583,75.30942,-136.47048,1022.25,-999.00,-999.0,yes,no,no,169312003533423,WB,BAS,APL_Sachs_Harbor,North
2014-03-22T15:00:00Z,1395500400,2014,15,0,81.625,81.625,75.30673,-136.47297,1025.98,-999.00,-999.0,yes,no,no,169312003533423,WB,BAS,APL_Sachs_Harbor,North
2014-03-22T16:00:28Z,1395504029,2014,16,0,81.667,81.667,75.30493,-136.47493,1023.45,-999.00,-999.0,yes,no,no,169312003533423,WB,BAS,APL_Sachs_Harbor,North
2014-03-22T16:59:31Z,1395507571,2014,17,0,81.708,81.708,75.30432,-136.47617,1023.45,-999.00,-999.0,yes,no,no,169312003533423,WB,BAS,APL_Sachs_Harbor,North
2014-03-22T18:00:00Z,1395511200,2014,18,0,81.75,81.75,75.30432,-136.47617,1022.25,-999.00,-999.0,yes,no,no,169312003533423,WB,BAS,APL_Sachs_Harbor,North
2014-03-22T19:00:28Z,1395514829,2014,19,0,81.792,81.792,75.30087,-136.47927,1024.79,-999.00,-999.0,yes,no,no,169312003533423,WB,BAS,APL_Sachs_Harbor,North
2014-03-22T19:59:31Z,1395518371,2014,20,0,81.833,81.833,75.30002,-136.47777,1023.45,-999.00,-999.0,yes,no,no,169312003533423,WB,BAS,APL_Sachs_Harbor,North
2014-03-22T21:00:00Z,1395522000,2014,21,0,81.875,81.875,75.29955,-136.47675,1025.99,-999.00,-999.0,yes,no,no,169312003533423,WB,BAS,APL_Sachs_Harbor,North
2014-03-22T22:00:28Z,1395525629,2014,22,0,81.917,81.917,75.29663,-136.4704,1028.52,-999.00,-999.0,yes,no,no,169312003533423,WB,BAS,APL_Sachs_Harbor,North
2014-03-22T22:59:31Z,1395529171,2014,23,0,81.958,81.958,75.29562,-136.46833,1029.85,-999.00,-999.0,yes,no,no,169312003533423,WB,BAS,APL_Sachs_Harbor,North
2014-03-23T00:00:00Z,1395532800,2014,0,0,82.0,82.0,75.29513,-136.46657,1032.39,-999.00,-999.0,yes,no,no,169312003533423,WB,BAS,APL_Sachs_Harbor,North
2014-03-23T01:00:28Z,1395536429,2014,1,0,82.042,82.042,75.29317,-136.46182,1032.39,-999.00,-999.0,yes,no,no,169312003533423,WB,BAS,APL_Sachs_Harbor,North
2014-03-23T01:59:31Z,1395539971,2014,2,0,82.083,82.083,75.29157,-136.46023,1032.38,-999.00,-999.0,yes,no,no,169312003533423,WB,BAS,APL_Sachs_Harbor,North
2014-03-23T03:00:00Z,1395543600,2014,3,0,82.125,82.125,75.28902,-136.45492,1033.71,-999.00,-999.0,yes,no,no,169312003533423,WB,BAS,APL_Sachs_Harbor,North
2014-03-23T04:00:28Z,1395547229,2014,4,0,82.167,82.167,75.28797,-136.45397,1032.38,-999.00,-999.0,yes,no,no,169312003533423,WB,BAS,APL_Sachs_Harbor,North
2014-03-23T04:59:31Z,1395550771,2014,5,0,82.208,82.208,75.28752,-136.45275,1031.18,-999.00,-999.0,yes,no,no,169312003533423,WB,BAS,APL_Sachs_Harbor,North
2014-03-23T06:00:00Z,1395554400,2014,6,0,82.25,82.25,75.28632,-136.44852,1029.85,-999.00,-999.0,yes,no,no,169312003533423,WB,BAS,APL_Sachs_Harbor,North
2014-03-23T07:59:31Z,1395561571,2014,8,0,82.333,82.333,75.28597,-136.44097,1029.85,-999.00,-999.0,yes,no,no,169312003533423,WB,BAS,APL_Sachs_Harbor,North
2014-03-23T09:00:00Z,1395565200,2014,9,0,82.375,82.375,75.286,-136.43187,1029.85,-999.00,-999.0,yes,no,no,169312003533423,WB,BAS,APL_Sachs_Harbor,North
2014-03-23T10:00:28Z,1395568829,2014,10,0,82.417,82.417,75.28617,-136.42417,1029.85,-999.00,-999.0,yes,no,no,169312003533423,WB,BAS,APL_Sachs_Harbor,North
2014-03-23T10:59:31Z,1395572371,2014,11,0,82.458,82.458,75.28628,-136.4206,1025.98,-999.00,-999.0,yes,no,no,169312003533423,WB,BAS,APL_Sachs_Harbor,North
2014-03-23T12:00:00Z,1395576000,2014,12,0,82.5,82.5,75.28655,-136.41033,1027.31,-999.00,-999.0,yes,no,no,169312003533423,WB,BAS,APL_Sachs_Harbor,North
2014-03-23T13:00:28Z,1395579629,2014,13,0,82.542,82.542,75.28677,-136.40062,1025.98,-999.00,-999.0,yes,no,no,169312003533423,WB,BAS,APL_Sachs_Harbor,North
2014-03-23T13:59:31Z,1395583171,2014,14,0,82.583,82.583,75.28712,-136.39543,1025.98,-999.00,-999.0,yes,no,no,169312003533423,WB,BAS,APL_Sachs_Harbor,North
2014-03-23T15:00:00Z,1395586800,2014,15,0,82.625,82.625,75.28783,-136.38535,1025.98,-999.00,-999.0,yes,no,no,169312003533423,WB,BAS,APL_Sachs_Harbor,North
2014-03-23T16:00:28Z,1395590429,2014,16,0,82.667,82.667,75.2886,-136.37737,1032.38,-999.00,-999.0,yes,no,no,169312003533423,WB,BAS,APL_Sachs_Harbor,North
2014-03-23T16:59:31Z,1395593971,2014,17,0,82.708,82.708,75.28982,-136.36792,1023.45,-999.00,-999.0,yes,no,no,169312003533423,WB,BAS,APL_Sachs_Harbor,North
2014-03-23T18:00:00Z,1395597600,2014,18,0,82.75,82.75,75.29103,-136.35812,1022.25,-999.00,-999.0,yes,no,no,169312003533423,WB,BAS,APL_Sachs_Harbor,North
2014-03-23T19:00:28Z,1395601229,2014,19,0,82.792,82.792,75.29228,-136.34888,1019.58,-999.00,-999.0,yes,no,no,169312003533423,WB,BAS,APL_Sachs_Harbor,North
2014-03-23T19:59:31Z,1395604771,2014,20,0,82.833,82.833,75.29395,-136.336,1019.58,-999.00,-999.0,yes,no,no,169312003533423,WB,BAS,APL_Sachs_Harbor,North
2014-03-23T21:00:00Z,1395608400,2014,21,0,82.875,82.875,75.29547,-136.32302,1019.59,-999.00,-999.0,yes,no,no,169312003533423,WB,BAS,APL_Sachs_Harbor,North
2014-03-23T22:00:28Z,1395612029,2014,22,0,82.917,82.917,75.29618,-136.3113,1020.92,-999.00,-999.0,yes,no,no,169312003533423,WB,BAS,APL_Sachs_Harbor,North
2014-03-23T22:59:31Z,1395615571,2014,23,0,82.958,82.958,75.29685,-136.29993,1022.25,-999.00,-999.0,yes,no,no,169312003533423,WB,BAS,APL_Sachs_Harbor,North
2014-03-24T00:00:00Z,1395619200,2014,0,0,83.0,83.0,75.29788,-136.28542,1020.92,-999.00,-999.0,yes,no,no,169312003533423,WB,BAS,APL_Sachs_Harbor,North
2014-03-24T01:00:28Z,1395622829,2014,1,0,83.042,83.042,75.29822,-136.27447,1019.58,-999.00,-999.0,yes,no,no,169312003533423,WB,BAS,APL_Sachs_Harbor,North
2014-03-24T01:59:31Z,1395626371,2014,2,0,83.083,83.083,75.29858,-136.26328,1019.58,-999.00,-999.0,yes,no,no,169312003533423,WB,BAS,APL_Sachs_Harbor,North
2014-03-24T03:00:00Z,1395630000,2014,3,0,83.125,83.125,75.29852,-136.2532,1015.85,-999.00,-999.0,yes,no,no,169312003533423,WB,BAS,APL_Sachs_Harbor,North
2014-03-24T04:00:28Z,1395633629,2014,4,0,83.167,83.167,75.29802,-136.24652,1017.05,-999.00,-999.0,yes,no,no,169312003533423,WB,BAS,APL_Sachs_Harbor,North
2014-03-24T04:59:31Z,1395637171,2014,5,0,83.208,83.208,75.29765,-136.24373,1014.51,-999.00,-999.0,yes,no,no,169312003533423,WB,BAS,APL_Sachs_Harbor,North
2014-03-24T06:00:00Z,1395640800,2014,6,0,83.25,83.25,75.29653,-136.24127,1015.85,-999.00,-999.0,yes,no,no,169312003533423,WB,BAS,APL_Sachs_Harbor,North
2014-03-24T07:00:28Z,1395644429,2014,7,0,83.292,83.292,75.29515,-136.23873,1014.51,-999.00,-999.0,yes,no,no,169312003533423,WB,BAS,APL_Sachs_Harbor,North
2014-03-24T07:59:31Z,1395647971,2014,8,0,83.333,83.333,75.29323,-136.23817,1010.65,-999.00,-999.0,yes,no,no,169312003533423,WB,BAS,APL_Sachs_Harbor,North
2014-03-24T09:00:00Z,1395651600,2014,9,0,83.375,83.375,75.29087,-136.23887,1014.51,-999.00,-999.0,yes,no,no,169312003533423,WB,BAS,APL_Sachs_Harbor,North
2014-03-24T10:00:28Z,1395655229,2014,10,0,83.417,83.417,75.28838,-136.24063,1015.85,-999.00,-999.0,yes,no,no,169312003533423,WB,BAS,APL_Sachs_Harbor,North
2014-03-24T10:59:31Z,1395658771,2014,11,0,83.458,83.458,75.286,-136.24293,1017.05,-999.00,-999.0,yes,no,no,169312003533423,WB,BAS,APL_Sachs_Harbor,North
2014-03-24T12:00:00Z,1395662400,2014,12,0,83.5,83.5,75.28265,-136.24573,1017.05,-999.00,-999.0,yes,no,no,169312003533423,WB,BAS,APL_Sachs_Harbor,North
2014-03-24T13:00:28Z,1395666029,2014,13,0,83.542,83.542,75.27995,-136.24735,1018.38,-999.00,-999.0,yes,no,no,169312003533423,WB,BAS,APL_Sachs_Harbor,North
2014-03-24T13:59:31Z,1395669571,2014,14,0,83.583,83.583,75.27728,-136.2489,1020.91,-999.00,-999.0,yes,no,no,169312003533423,WB,BAS,APL_Sachs_Harbor,North
2014-03-24T15:00:00Z,1395673200,2014,15,0,83.625,83.625,75.27395,-136.25148,1022.25,-999.00,-999.0,yes,no,no,169312003533423,WB,BAS,APL_Sachs_Harbor,North
2014-03-24T16:00:28Z,1395676829,2014,16,0,83.667,83.667,75.27087,-136.2524,1020.91,-999.00,-999.0,yes,no,no,169312003533423,WB,BAS,APL_Sachs_Harbor,North
2014-03-24T16:59:31Z,1395680371,2014,17,0,83.708,83.708,75.26905,-136.25407,1022.25,-999.00,-999.0,yes,no,no,169312003533423,WB,BAS,APL_Sachs_Harbor,North
2014-03-24T18:00:00Z,1395684000,2014,18,0,83.75,83.75,75.26623,-136.25557,1020.92,-999.00,-999.0,yes,no,no,169312003533423,WB,BAS,APL_Sachs_Harbor,North
2014-03-24T19:00:28Z,1395687629,2014,19,0,83.792,83.792,75.26433,-136.25627,1024.79,-999.00,-999.0,yes,no,no,169312003533423,WB,BAS,APL_Sachs_Harbor,North
2014-03-24T19:59:31Z,1395691171,2014,20,0,83.833,83.833,75.2622,-136.2558,1024.79,-999.00,-999.0,yes,no,no,169312003533423,WB,BAS,APL_Sachs_Harbor,North
2014-03-24T21:00:00Z,1395694800,2014,21,0,83.875,83.875,75.26065,-136.25467,1025.99,-999.00,-999.0,yes,no,no,169312003533423,WB,BAS,APL_Sachs_Harbor,North
2014-03-24T22:00:28Z,1395698429,2014,22,0,83.917,83.917,75.2596,-136.25245,1027.32,-999.00,-999.0,yes,no,no,169312003533423,WB,BAS,APL_Sachs_Harbor,North
2014-03-24T22:59:31Z,1395701971,2014,23,0,83.958,83.958,75.25718,-136.24603,1028.52,-999.00,-999.0,yes,no,no,169312003533423,WB,BAS,APL_Sachs_Harbor,North
2014-03-25T00:00:00Z,1395705600,2014,0,0,84.0,84.0,75.25548,-136.24067,1029.85,-999.00,-999.0,yes,no,no,169312003533423,WB,BAS,APL_Sachs_Harbor,North
2014-03-25T01:00:28Z,1395709229,2014,1,0,84.042,84.042,75.25338,-136.23273,1031.19,-999.00,-999.0,yes,no,no,169312003533423,WB,BAS,APL_Sachs_Harbor,North
2014-03-25T01:59:31Z,1395712771,2014,2,0,84.083,84.083,75.25242,-136.22882,1029.85,-999.00,-999.0,yes,no,no,169312003533423,WB,BAS,APL_Sachs_Harbor,North
2014-03-25T03:00:00Z,1395716400,2014,3,0,84.125,84.125,75.24992,-136.21773,1029.85,-999.00,-999.0,yes,no,no,169312003533423,WB,BAS,APL_Sachs_Harbor,North
2014-03-25T04:00:28Z,1395720029,2014,4,0,84.167,84.167,75.24868,-136.21175,1027.31,-999.00,-999.0,yes,no,no,169312003533423,WB,BAS,APL_Sachs_Harbor,North
2014-03-25T04:59:31Z,1395723571,2014,5,0,84.208,84.208,75.24732,-136.2078,1025.98,-999.00,-999.0,yes,no,no,169312003533423,WB,BAS,APL_Sachs_Harbor,North
2014-03-25T06:00:00Z,1395727200,2014,6,0,84.25,84.25,75.24682,-136.20647,1027.31,-999.00,-999.0,yes,no,no,169312003533423,WB,BAS,APL_Sachs_Harbor,North
2014-03-25T07:00:28Z,1395730829,2014,7,0,84.292,84.292,75.2455,-136.20333,1024.78,-999.00,-999.0,yes,no,no,169312003533423,WB,BAS,APL_Sachs_Harbor,North
2014-03-25T07:59:31Z,1395734371,2014,8,0,84.333,84.333,75.24532,-136.20243,1024.78,-999.00,-999.0,yes,no,no,169312003533423,WB,BAS,APL_Sachs_Harbor,North
2014-03-25T09:00:00Z,1395738000,2014,9,0,84.375,84.375,75.24523,-136.20057,1027.31,-999.00,-999.0,yes,no,no,169312003533423,WB,BAS,APL_Sachs_Harbor,North
2014-03-25T10:00:28Z,1395741629,2014,10,0,84.417,84.417,75.2452,-136.19887,1025.98,-999.00,-999.0,yes,no,no,169312003533423,WB,BAS,APL_Sachs_Harbor,North
2014-03-25T10:59:31Z,1395745171,2014,11,0,84.458,84.458,75.2452,-136.19837,1024.78,-999.00,-999.0,yes,no,no,169312003533423,WB,BAS,APL_Sachs_Harbor,North
2014-03-25T12:00:00Z,1395748800,2014,12,0,84.5,84.5,75.2452,-136.19837,1022.25,-999.00,-999.0,yes,no,no,169312003533423,WB,BAS,APL_Sachs_Harbor,North
2014-03-25T13:00:28Z,1395752429,2014,13,0,84.542,84.542,75.24562,-136.19533,1023.45,-999.00,-999.0,yes,no,no,169312003533423,WB,BAS,APL_Sachs_Harbor,North
2014-03-25T13:59:31Z,1395755971,2014,14,0,84.583,84.583,75.2457,-136.19507,1028.51,-999.00,-999.0,yes,no,no,169312003533423,WB,BAS,APL_Sachs_Harbor,North
2014-03-25T15:00:00Z,1395759600,2014,15,0,84.625,84.625,75.24592,-136.19435,1020.91,-999.00,-999.0,yes,no,no,169312003533423,WB,BAS,APL_Sachs_Harbor,North
2014-03-25T16:00:28Z,1395763229,2014,16,0,84.667,84.667,75.24593,-136.19425,1020.91,-999.00,-999.0,yes,no,no,169312003533423,WB,BAS,APL_Sachs_Harbor,North
2014-03-25T16:59:31Z,1395766771,2014,17,0,84.708,84.708,75.24593,-136.19425,1019.58,-999.00,-999.0,yes,no,no,169312003533423,WB,BAS,APL_Sachs_Harbor,North
2014-03-25T18:00:00Z,1395770400,2014,18,0,84.75,84.75,75.24667,-136.19032,1018.38,-999.00,-999.0,yes,no,no,169312003533423,WB,BAS,APL_Sachs_Harbor,North
2014-03-25T19:00:28Z,1395774029,2014,19,0,84.792,84.792,75.24712,-136.18772,1019.59,-999.00,-999.0,yes,no,no,169312003533423,WB,BAS,APL_Sachs_Harbor,North
2014-03-25T19:59:31Z,1395777571,2014,20,0,84.833,84.833,75.24778,-136.18362,1020.92,-999.00,-999.0,yes,no,no,169312003533423,WB,BAS,APL_Sachs_Harbor,North
2014-03-25T21:00:00Z,1395781200,2014,21,0,84.875,84.875,75.24823,-136.17985,1019.59,-999.00,-999.0,yes,no,no,169312003533423,WB,BAS,APL_Sachs_Harbor,North